Location: Strawberry
(45.6646°N, 111.9596°W)
Time: 22:29:45
(UTC+00:00)

Explorer 11/Cluster Stage 4 - Pass Details

Date: 08 October 2022
Orbit: 466 x 1248 km, 28.8° (Epoch: 28 November)

Event Time Altitude Azimuth Distance (km) Brightness Sun altitude
Rises 17:55:12 0° 236° (SW) 4,104 10.4 35.2°
Reaches altitude 10° 17:58:45 10° 222° (SW) 3,190 10.1 35.5°
Maximum altitude 18:04:39 22° 176° (S) 2,402 10.7 35.9°
Drops below altitude 10° 18:10:29 10° 129° (SE) 3,147 10.6 36.3°
Sets 18:13:58 0° 115° (ESE) 4,036 10.8 36.5°
